Temperature
18 18 18 18 18 18 18 18 18 18 18 18 17 17 17 17 17 17 17 17 17 17 17 17 17 17 17 17 17 17 17 17 17 17 16 16 16 16 16 16 16 16 16
18 17 17 17 18 18 17 17 17 17 17 17 17 17 17 17 17 17 17 17 17 17 17 17 17 17 17 17 17 17 17 17 17 17 17 16 16 16 16 16 16 16 16
17 17 17 17 17 17 17 17 17 17 17 17 17 17 17 17 17 17 17 17 17 17 17 17 17 17 17 17 17 17 17 17 17 17 17 17 16 16 16 16 16 16 16
17 17 17 17 17 17 17 17 17 17 17 17 17 17 17 17 17 17 17 17 17 17 17 17 17 17 17 17 17 17 17 17 17 17 17 17 16 16 16 16 16 16 16
17 17 17 17 17 17 17 17 17 17 17 17 17 17 17 17 17 17 17 17 17 17 17 16 16 16 16 16 16 16 16 16 16 16 16 16 16 16 16 16 16 16 16
17 17 17 17 17 17 16 16 17 17 17 17 17 17 17 17 17 17 17 16 16 16 16 16 16 16 16 16 16 16 16 16 16 16 16 16 16 16 16 16 16 16 16
17 17 16 16 16 16 16 16 16 16 16 16 16 17 17 17 17 17 17 16 16 16 16 16 16 16 16 16 16 16 16 16 16 16 16 16 16 16 16 16 16 16 16
16 16 16 16 16 16 16 16 16 16 16 16 16 16 16 16 16 16 16 16 16 16 16 16 16 16 16 16 16 15 15 15 16 16 16 16 16 16 16 16 16 16 16
16 16 16 16 16 16 16 16 16 16 16 16 16 16 16 16 16 16 16 16 16 16 16 16 16 16 15 15 15 15 15 15 15 15 15 15 15 15 15 15 15 15 16
16 16 16 16 16 16 15 15 15 15 16 16 16 16 16 16 16 16 16 16 16 16 16 16 16 15 15 15 15 15 15 15 15 15 15 15 15 15 15 15 15 15 15
16 16 16 15 15 15 15 15 15 15 15 15 15 15 15 15 16 16 15 15 15 15 15 15 15 15 15 15 15 15 15 15 15 15 15 15 15 15 15 15 15 15 15
16 15 15 15 15 15 15 15 15 15 15 15 15 15 15 15 15 15 15 15 15 15 15 15 15 15 15 15 15 14 14 14 14 14 14 14 14 14 15 15 15 15 15
15 15 15 15 15 15 15 15 15 15 15 15 15 15 15 15 15 15 15 15 15 15 15 15 15 15 14 14 14 14 14 14 14 14 14 14 14 14 14 14 14 15 15
16 16 15 15 15 15 15 15 15 15 15 15 15 14 14 14 14 14 14 14 14 14 14 14 14 14 14 14 14 14 14 14 14 14 14 14 14 14 14 14 14 14 14
16 15 15 15 15 15 15 15 15 15 15 14 14 14 14 14 14 14 14 14 14 14 14 14 14 14 14 14 14 13 13 13 13 13 13 13 13 13 13 13 14 14 14
16 15 15 15 15 15 15 15 15 14 14 14 14 14 14 14 13 13 13 13 13 13 13 13 13 13 13 13 13 13 13 13 13 13 13 13 13 13 13 13 13 13 14
16 15 15 15 15 15 15 15 15 14 14 14 14 14 14 14 13 13 13 13 13 13 13 13 13 13 13 13 13 13 13 13 13 13 13 13 13 13 13 13 13 13 13
16 15 15 15 15 15 15 15 15 15 14 14 14 14 14 14 14 13 13 13 13 13 13 13 13 13 13 13 13 13 13 13 13 13 12 12 12 12 12 13 13 13 13
16 15 15 15 15 15 15 15 15 15 14 14 14 14 14 14 14 13 13 13 13 13 13 13 13 13 13 13 13 13 13 12 12 12 12 12 12 12 12 12 12 12 12
16 16 15 15 15 15 15 15 15 15 15 14 14 14 14 14 14 13 13 13 13 13 13 13 13 13 13 13 12 12 12 12 12 12 12 12 12 12 12 12 12 12 12
16 16 16 15 15 15 15 15 15 15 15 15 14 14 14 14 14 13 13 13 13 13 13 13 13 12 13 12 12 12 12 12 12 12 12 12 12 12 12 12 12 12 12
16 16 16 16 16 15 15 15 15 15 15 15 14 14 14 14 14 14 13 13 13 13 13 13 12 12 13 12 12 12 12 11 12 12 12 12 12 12 12 12 12 12 12
16 16 16 16 16 16 16 15 15 15 15 15 14 14 14 14 14 13 13 13 13 13 13 12 12 12 12 12 12 12 12 11 11 12 11 11 12 12 12 12 12 12 11
16 16 16 16 16 16 16 15 15 15 15 15 14 14 14 14 14 13 13 13 13 13 13 12 12 12 12 12 12 11 11 11 11 11 11 11 12 12 12 12 12 11 11
16 16 16 16 16 16 15 15 15 15 14 14 14 14 14 14 14 13 13 13 13 13 13 12 12 12 12 12 12 11 11 11 11 11 11 11 11 11 11 11 11 11 11
17 16 16 16 16 15 15 15 14 14 14 14 14 14 14 14 13 13 13 13 13 13 13 12 12 12 12 12 12 11 11 11 10 11 11 11 11 11 11 11 11 11 11
Wind_Speed
5 5 5 6 6 5 5 3 3 2 2 2 4 5 5 6 8 8 10 13 15 15 15 15 15 15 15 14 14 14 13 13 13 12 12 12 12 12 12 12 12 12 12
7 5 4 4 5 6 6 5 4 2 1 2 2 4 5 6 8 9 10 13 15 15 15 15 15 15 15 15 15 15 14 14 14 14 13 13 13 13 12 12 12 12 12
9 7 4 3 4 5 6 4 3 3 2 1 2 2 3 5 7 8 10 10 12 14 14 14 15 15 15 15 16 16 16 16 16 15 15 15 15 14 14 14 13 13 13
10 7 4 3 4 5 5 3 3 3 2 2 1 0 1 2 5 7 9 9 10 10 12 14 14 15 15 15 16 16 16 16 17 17 16 16 16 15 15 15 15 15 14
10 8 4 3 6 4 3 3 3 2 2 1 0 0 0 1 2 5 5 8 9 10 10 12 14 14 14 14 15 15 16 17 17 17 17 16 16 17 17 16 16 16 16
10 8 5 4 5 4 3 3 3 2 1 1 0 1 1 1 1 2 3 4 7 8 8 8 9 11 13 14 15 15 15 17 17 18 17 17 17 18 18 18 18 18 18
10 8 4 4 4 4 3 3 3 3 1 1 3 3 3 3 1 0 1 1 2 5 6 7 7 7 8 11 12 13 13 14 16 17 17 17 17 18 19 19 20 20 19
10 8 6 4 4 4 4 3 3 2 1 2 3 3 3 4 4 2 1 1 1 2 3 5 6 6 6 6 7 9 11 11 12 14 15 16 16 17 18 19 20 21 21
9 9 8 5 4 4 4 3 4 4 2 2 2 4 3 2 2 3 2 1 0 1 0 2 4 5 5 4 5 6 8 9 10 10 12 13 14 15 17 19 20 21 22
8 9 8 7 5 4 4 3 3 3 4 2 2 2 2 3 3 1 3 3 2 0 1 0 2 3 4 4 4 4 4 5 6 8 9 10 13 15 16 16 18 20 21
6 8 8 6 5 4 4 4 5 4 3 3 2 2 3 3 3 3 0 3 3 3 2 1 2 3 4 5 5 3 3 3 4 5 6 8 10 12 14 16 17 18 19
4 6 7 6 5 4 5 5 5 6 4 4 3 3 3 3 2 3 2 1 2 3 3 2 1 1 4 5 5 4 3 2 2 3 5 6 8 9 11 13 15 16 18
4 5 5 5 4 4 5 5 5 5 4 4 4 3 2 2 2 3 3 1 1 3 3 3 2 0 2 5 4 4 3 3 3 4 6 7 8 9 11 12 13 15 16
5 6 6 6 6 6 6 5 4 3 4 4 4 3 2 1 2 3 3 3 2 3 3 3 3 2 0 3 4 4 4 5 6 7 8 10 10 11 11 12 13 14 15
6 7 7 7 6 6 6 5 4 3 4 3 3 3 2 1 2 2 3 3 4 1 2 3 3 3 2 3 4 5 5 7 9 11 12 13 14 14 14 14 14 14 15
7 8 8 7 7 6 6 5 4 3 4 3 3 3 2 1 1 2 2 2 3 4 2 3 3 3 3 4 6 6 8 10 11 13 15 16 16 17 17 17 16 16 15
9 9 9 8 7 7 6 5 4 4 5 3 3 3 3 3 2 1 1 2 2 3 3 4 3 3 2 4 6 8 10 11 12 14 16 17 18 19 19 19 19 18 17
9 9 9 8 8 7 7 7 6 5 5 5 4 4 4 3 3 2 2 2 2 3 4 4 3 3 4 4 4 5 7 9 10 13 15 16 16 17 18 19 20 20 20
9 8 8 9 8 7 7 7 7 6 6 6 6 6 5 4 4 3 3 3 3 2 3 3 4 3 3 3 3 4 4 5 9 11 13 13 14 15 16 17 19 20 21
9 9 9 9 8 8 8 7 7 6 6 6 6 6 6 7 7 6 5 5 4 3 3 3 4 4 4 4 2 3 4 4 5 8 10 11 11 13 14 16 17 19 20
11 9 9 8 8 7 8 8 7 7 7 6 6 6 7 9 10 8 6 6 6 4 4 4 5 4 4 4 4 3 4 5 5 4 4 5 6 8 12 15 17 18 20
9 9 9 9 9 8 10 12 9 7 7 7 7 7 7 8 10 12 12 11 10 8 7 6 5 6 8 6 5 5 4 4 5 4 3 5 4 6 8 13 17 20 20
9 9 9 9 9 10 12 13 13 8 7 7 7 7 6 6 8 6 9 11 11 14 13 9 9 10 8 8 6 6 7 7 8 6 3 7 6 7 9 15 19 21 22
9 9 9 10 9 10 14 14 13 8 7 8 8 8 7 7 7 7 7 7 8 9 11 10 10 11 11 10 8 8 8 7 7 6 5 6 7 7 9 11 19 21 22
9 9 8 10 10 10 14 15 12 6 6 8 8 8 8 8 11 11 7 8 9 9 12 15 16 17 18 18 13 5 6 6 8 7 5 5 6 7 6 8 14 18 19
9 9 8 9 10 10 12 14 13 6 6 7 6 7 10 10 11 9 6 7 9 10 8 8 9 12 13 15 16 11 9 9 7 6 6 5 6 5 5 6 6 9 11
Wind_Direction
155 157 162 166 168 167 161 154 143 134 120 119 132 132 134 147 165 175 183 190 190 189 188 185 183 183 183 183 183 181 180 178 177 174 172 172 172 171 171 169 169 167 164
153 153 153 158 161 166 164 158 153 140 130 127 110 122 132 151 175 188 194 197 201 198 197 196 194 193 192 192 191 190 189 188 186 184 182 181 181 181 180 178 177 176 175
150 149 142 143 159 156 145 133 122 109 98 81 74 95 132 153 177 188 192 199 206 208 208 206 204 203 201 201 200 198 197 195 193 191 191 190 190 190 189 187 186 185 185
144 138 132 140 151 139 130 121 109 96 83 76 67 20 133 166 181 191 198 204 205 209 214 213 212 211 209 209 209 207 206 204 202 200 199 197 197 198 197 196 194 194 193
143 136 134 139 135 122 118 129 108 116 108 96 221 207 252 198 197 194 196 203 206 209 212 217 217 218 217 218 217 215 212 210 210 209 208 206 205 204 204 204 203 202 201
139 132 126 123 125 110 104 106 103 91 113 159 51 37 337 285 198 180 201 199 204 208 205 208 217 224 226 227 227 225 220 216 215 215 215 215 214 212 210 210 210 209 208
135 128 119 115 117 115 120 118 101 82 53 73 67 24 357 357 12 258 205 171 185 196 192 199 206 218 230 229 230 229 226 223 221 220 219 219 220 219 218 217 216 216 215
136 132 124 126 120 111 99 94 94 98 43 74 110 89 27 360 355 357 11 150 173 186 181 198 199 209 221 222 229 231 231 231 228 225 225 225 225 224 224 224 224 222 220
134 130 128 126 120 119 117 114 112 115 95 34 82 130 129 196 317 342 355 18 24 141 163 171 187 197 204 208 223 231 235 234 232 229 228 227 228 230 230 230 229 227 225
136 134 132 128 122 120 122 121 110 113 111 75 35 50 120 150 132 9 339 344 352 39 290 215 151 164 167 171 191 205 222 233 239 241 242 241 239 239 238 236 236 234 231
138 137 133 128 124 124 124 115 102 98 104 113 101 79 67 59 78 122 359 330 343 329 309 274 182 169 165 158 160 174 197 225 242 249 253 256 255 251 248 247 246 245 241
135 138 134 130 129 126 126 124 115 108 104 103 99 94 109 104 103 119 141 289 313 310 329 334 305 165 158 160 166 168 176 198 233 255 264 269 272 269 265 262 260 257 251
153 160 141 138 136 138 133 124 116 114 116 114 112 106 112 132 150 139 129 133 346 318 337 343 324 303 167 169 177 185 203 216 238 259 268 273 277 279 278 275 273 268 262
167 161 149 148 147 142 134 124 120 126 123 121 117 115 106 100 122 139 146 136 61 349 343 319 320 338 305 197 215 216 231 242 253 262 268 271 273 275 277 279 276 274 270
165 156 151 150 148 141 138 133 127 135 131 128 129 118 113 98 89 108 129 140 139 133 302 301 314 312 293 244 243 241 255 263 265 268 270 272 272 273 273 274 275 274 272
158 154 153 152 150 146 145 138 137 147 140 150 150 135 133 135 99 105 116 126 140 156 215 270 270 279 279 276 262 257 263 271 273 273 274 274 273 273 272 272 273 272 271
158 158 160 158 158 159 155 154 167 166 166 179 177 169 187 182 163 148 115 120 142 151 202 274 273 285 285 285 289 282 277 275 278 281 280 277 275 274 272 271 271 270 269
164 164 162 164 170 172 171 173 184 182 182 192 199 189 205 195 196 205 187 191 196 185 187 249 284 290 278 276 276 282 284 283 281 284 285 285 282 279 276 272 270 268 266
165 166 167 174 181 182 184 187 187 191 195 201 200 197 206 193 211 219 213 215 225 217 191 214 262 270 278 284 295 294 290 291 292 291 292 293 293 289 285 280 274 269 267
170 176 179 183 187 187 190 193 192 196 203 209 206 204 206 203 211 216 219 220 220 228 227 229 257 271 274 283 283 285 297 292 290 293 291 292 296 298 295 291 283 276 272
183 183 184 190 192 191 198 197 199 203 208 219 222 219 219 218 218 216 218 216 210 216 224 233 253 267 272 277 266 257 268 282 282 268 279 286 292 295 294 293 287 281 275
185 183 189 193 198 207 206 202 197 203 207 215 226 233 240 237 236 234 235 226 212 213 222 228 240 246 257 254 252 251 255 275 285 267 252 275 272 277 279 281 279 278 276
189 191 196 196 204 213 210 209 207 200 208 215 219 226 241 240 236 241 251 251 242 235 225 223 235 244 250 248 245 256 250 246 254 251 245 274 271 272 274 277 276 276 275
193 197 200 202 206 217 213 213 211 206 212 220 221 221 230 245 246 238 244 255 257 254 244 235 236 246 247 247 237 243 252 260 263 259 221 258 269 265 272 272 274 275 276
194 199 201 202 207 219 215 214 209 204 221 235 237 235 231 242 253 250 242 252 265 269 264 251 244 249 253 255 249 246 254 256 271 272 221 225 260 266 268 267 269 269 271
197 198 205 208 210 217 217 215 209 207 226 243 249 248 243 246 255 255 237 242 259 267 271 278 268 265 261 262 257 239 237 245 255 266 242 216 249 254 276 265 259 266 270
Height
1552 1554 1556 1558 1559 1561 1562 1563 1565 1566 1567 1568 1568 1569 1570 1570 1571 1572 1572 1573 1574 1575 1575 1576 1577 1578 1579 1579 1580 1581 1581 1582 1583 1584 1585 1586 1587 1588 1589 1590 1591 1592 1593
1552 1554 1555 1557 1558 1560 1561 1563 1564 1565 1566 1567 1568 1569 1569 1569 1570 1571 1572 1572 1573 1574 1575 1575 1576 1577 1578 1579 1580 1580 1581 1582 1583 1584 1585 1585 1586 1587 1588 1589 1590 1592 1593
1551 1553 1555 1556 1558 1559 1560 1562 1563 1564 1565 1566 1567 1568 1568 1569 1570 1571 1572 1572 1573 1574 1574 1575 1576 1576 1577 1578 1579 1579 1580 1581 1582 1583 1584 1585 1586 1587 1588 1589 1590 1591 1592
1550 1552 1554 1555 1556 1558 1559 1560 1562 1563 1564 1565 1566 1567 1568 1569 1569 1570 1571 1572 1572 1573 1573 1574 1575 1575 1576 1577 1577 1578 1579 1580 1581 1582 1583 1584 1585 1586 1587 1588 1589 1590 1591
1549 1551 1552 1554 1555 1557 1558 1559 1560 1562 1563 1564 1565 1566 1567 1568 1569 1569 1570 1571 1571 1572 1572 1573 1574 1574 1574 1575 1576 1576 1577 1578 1579 1580 1581 1582 1583 1584 1585 1586 1587 1588 1589
1548 1550 1552 1553 1554 1556 1557 1558 1559 1560 1562 1563 1564 1565 1566 1567 1568 1568 1569 1569 1570 1571 1571 1572 1572 1572 1573 1573 1574 1574 1575 1576 1577 1578 1579 1580 1581 1582 1583 1584 1585 1586 1587
1547 1549 1550 1552 1553 1555 1556 1557 1558 1559 1561 1562 1563 1564 1565 1566 1567 1567 1567 1568 1569 1569 1570 1570 1570 1571 1571 1571 1572 1572 1573 1574 1574 1575 1576 1577 1578 1580 1581 1582 1583 1584 1585
1546 1548 1550 1551 1553 1553 1554 1556 1557 1558 1560 1561 1562 1563 1564 1566 1566 1566 1567 1567 1568 1568 1568 1569 1569 1569 1569 1569 1570 1570 1571 1571 1572 1573 1573 1574 1575 1576 1577 1578 1580 1581 1582
1546 1548 1549 1551 1552 1553 1554 1555 1556 1558 1559 1560 1561 1563 1563 1564 1565 1566 1566 1566 1567 1567 1567 1567 1568 1568 1567 1567 1568 1568 1569 1569 1569 1570 1570 1571 1572 1573 1574 1575 1576 1577 1578
1545 1547 1548 1550 1551 1552 1553 1555 1556 1557 1559 1559 1560 1561 1563 1563 1564 1565 1566 1566 1566 1566 1566 1566 1566 1566 1566 1566 1566 1566 1566 1566 1567 1567 1567 1568 1568 1569 1570 1571 1571 1572 1573
1544 1546 1548 1549 1550 1552 1553 1554 1555 1557 1558 1559 1560 1561 1561 1562 1563 1563 1564 1565 1565 1565 1565 1565 1565 1565 1565 1565 1564 1564 1564 1564 1564 1564 1564 1564 1565 1565 1565 1566 1567 1567 1568
1543 1545 1547 1548 1550 1551 1552 1553 1555 1556 1557 1558 1559 1560 1561 1561 1562 1562 1563 1563 1564 1564 1564 1564 1564 1564 1564 1563 1563 1563 1562 1562 1562 1561 1561 1561 1561 1561 1561 1561 1562 1562 1563
1542 1544 1546 1548 1549 1550 1552 1553 1554 1555 1556 1557 1558 1559 1560 1560 1561 1561 1562 1562 1562 1563 1563 1563 1562 1562 1562 1562 1562 1561 1560 1560 1559 1559 1558 1558 1557 1557 1557 1557 1557 1557 1558
1541 1543 1545 1547 1548 1550 1551 1552 1553 1554 1555 1556 1557 1558 1559 1559 1560 1560 1561 1561 1561 1561 1561 1561 1561 1561 1561 1560 1560 1559 1558 1557 1556 1556 1555 1554 1554 1553 1553 1553 1552 1552 1553
1540 1542 1544 1546 1547 1548 1550 1551 1552 1553 1554 1555 1556 1556 1557 1558 1558 1559 1559 1559 1560 1560 1560 1559 1559 1559 1559 1558 1558 1557 1556 1555 1553 1552 1551 1550 1550 1549 1549 1548 1548 1548 1548
1539 1541 1543 1545 1546 1547 1548 1550 1551 1552 1553 1554 1555 1555 1556 1557 1557 1557 1558 1558 1558 1558 1558 1557 1557 1557 1557 1556 1555 1554 1553 1552 1550 1549 1548 1547 1546 1545 1545 1544 1544 1543 1543
1538 1540 1542 1543 1544 1546 1547 1548 1549 1550 1551 1552 1553 1554 1555 1555 1556 1556 1556 1556 1556 1556 1556 1556 1555 1555 1554 1553 1552 1551 1550 1549 1547 1546 1545 1543 1542 1541 1541 1540 1539 1539 1538
1536 1538 1540 1541 1543 1544 1545 1547 1548 1549 1550 1551 1552 1552 1553 1553 1554 1554 1554 1554 1554 1554 1554 1553 1552 1552 1551 1550 1549 1548 1547 1545 1544 1543 1541 1540 1539 1537 1536 1536 1535 1534 1533
1534 1536 1538 1539 1541 1542 1544 1545 1546 1547 1548 1549 1550 1551 1551 1551 1551 1552 1552 1552 1551 1551 1551 1550 1549 1548 1547 1547 1545 1544 1543 1542 1540 1539 1537 1536 1534 1533 1532 1531 1530 1529 1528
1531 1533 1535 1537 1538 1540 1542 1543 1544 1546 1546 1547 1548 1548 1549 1549 1549 1549 1549 1548 1548 1548 1547 1546 1545 1544 1544 1543 1541 1540 1538 1537 1536 1534 1533 1531 1530 1528 1527 1526 1525 1524 1523
1528 1530 1532 1534 1536 1538 1539 1541 1542 1543 1544 1545 1545 1546 1546 1546 1546 1546 1545 1545 1545 1544 1544 1543 1541 1540 1539 1538 1537 1536 1534 1532 1530 1529 1527 1526 1524 1523 1521 1520 1519 1518 1517
1525 1527 1529 1531 1533 1534 1536 1538 1539 1540 1541 1541 1542 1542 1542 1542 1542 1542 1542 1541 1541 1540 1539 1538 1537 1536 1535 1534 1533 1531 1529 1527 1524 1524 1522 1519 1519 1516 1515 1514 1512 1511 1511
1522 1524 1526 1527 1529 1531 1533 1534 1536 1536 1537 1538 1538 1538 1538 1538 1538 1538 1537 1537 1536 1536 1535 1534 1532 1531 1530 1529 1528 1526 1524 1521 1519 1518 1516 1512 1512 1509 1508 1507 1506 1505 1504
1518 1520 1522 1524 1525 1527 1529 1530 1532 1532 1533 1533 1533 1534 1533 1533 1533 1533 1532 1531 1531 1530 1529 1528 1527 1525 1524 1523 1522 1520 1518 1515 1512 1512 1511 1506 1504 1503 1501 1500 1499 1498 1497
1513 1516 1518 1520 1521 1523 1525 1526 1527 1528 1528 1528 1529 1529 1528 1528 1528 1527 1526 1525 1524 1523 1523 1522 1520 1519 1518 1517 1515 1513 1511 1508 1504 1503 1504 1500 1498 1496 1494 1492 1492 1491 1490
1509 1512 1514 1515 1517 1519 1520 1522 1523 1523 1523 1523 1523 1523 1523 1523 1522 1521 1521 1519 1518 1517 1516 1514 1513 1512 1510 1509 1508 1506 1503 1501 1497 1495 1495 1494 1491 1489 1485 1484 1484 1483 1482